| time (UTC) | temp F | wind direction | speed MPH | gust MPH | rain 1hr in | rain 24hr in | rain mn in | humidity % | barometer mb |
| 20260509171319 | 75 | 280 | 2.0 | 9.0 | 0.00 | 0.00 | 0.00 | 32 | 1005.6 |
| 20260509170824 | 74 | 253 | 3.0 | 7.0 | 0.00 | 0.00 | 0.00 | 28 | 1005.6 |
| 20260509170347 | 74 | 309 | 3.0 | 5.0 | 0.00 | 0.00 | 0.00 | 30 | 1005.6 |
| 20260509165852 | 74 | 271 | 2.0 | 4.0 | 0.00 | 0.00 | 0.00 | 34 | 1005.6 |
| 20260509165334 | 74 | 271 | 2.0 | 10.0 | 0.00 | 0.00 | 0.00 | 37 | 1005.7 |
| 20260509164836 | 73 | 291 | 3.0 | 10.0 | 0.00 | 0.00 | 0.00 | 35 | 1005.5 |
| 20260509164339 | 73 | 296 | 2.0 | 7.0 | 0.00 | 0.00 | 0.00 | 38 | 1005.6 |
| 20260509163840 | 72 | 253 | 3.0 | 6.0 | 0.00 | 0.00 | 0.00 | 35 | 1005.6 |
| 20260509163341 | 72 | 325 | 2.0 | 6.0 | 0.00 | 0.00 | 0.00 | 37 | 1005.5 |
| 20260509162823 | 72 | 229 | 2.0 | 8.0 | 0.00 | 0.00 | 0.00 | 38 | 1005.5 |
| 20260509162326 | 72 | 277 | 1.0 | 8.0 | 0.00 | 0.00 | 0.00 | 38 | 1005.6 |
| 20260509161830 | 72 | 296 | 3.0 | 7.0 | 0.00 | 0.00 | 0.00 | 39 | 1005.7 |
| 20260509161338 | 72 | 317 | 2.0 | 6.0 | 0.00 | 0.00 | 0.00 | 38 | 1005.5 |
| 20260509160823 | 71 | 264 | 1.0 | 6.0 | 0.00 | 0.00 | 0.00 | 43 | 1005.4 |
| 20260509160329 | 71 | 316 | 3.0 | 6.0 | 0.00 | 0.00 | 0.00 | 40 | 1005.4 |
| 20260509155817 | 71 | 360 | 2.0 | 7.0 | 0.00 | 0.00 | 0.00 | 44 | 1005.4 |
| 20260509155325 | 71 | 267 | 2.0 | 7.0 | 0.00 | 0.00 | 0.00 | 41 | 1005.4 |
| 20260509154850 | 70 | 295 | 1.0 | 4.0 | 0.00 | 0.00 | 0.00 | 45 | 1005.4 |
| 20260509154356 | 70 | 219 | 0.0 | 4.0 | 0.00 | 0.00 | 0.00 | 44 | 1005.4 |
| 20260509153820 | 69 | 234 | 0.0 | 4.0 | 0.00 | 0.00 | 0.00 | 49 | 1005.6 |
| 20260509153346 | 69 | 161 | 1.0 | 4.0 | 0.00 | 0.00 | 0.00 | 53 | 1005.4 |
| 20260509152827 | 68 | 355 | 1.0 | 4.0 | 0.00 | 0.00 | 0.00 | 52 | 1005.4 |
| 20260509152354 | 68 | 242 | 1.0 | 3.0 | 0.00 | 0.00 | 0.00 | 51 | 1005.3 |
| 20260509151835 | 67 | 321 | 0.0 | 3.0 | 0.00 | 0.00 | 0.00 | 59 | 1005.3 |
| 20260509151317 | 66 | 240 | 1.0 | 3.0 | 0.00 | 0.00 | 0.00 | 58 | 1005.2 |
| 20260509150819 | 66 | 121 | 0.0 | 3.0 | 0.00 | 0.00 | 0.00 | 62 | 1005.3 |
| 20260509150323 | 66 | 241 | 0.0 | 3.0 | 0.00 | 0.00 | 0.00 | 62 | 1005.2 |
| 20260509145847 | 66 | 195 | 0.0 | 3.0 | 0.00 | 0.00 | 0.00 | 62 | 1005.3 |
| 20260509145350 | 65 | 360 | 1.0 | 3.0 | 0.00 | 0.00 | 0.00 | 64 | 1005.3 |
| 20260509144832 | 64 | 360 | 0.0 | 4.0 | 0.00 | 0.00 | 0.00 | 69 | 1005.3 |
| 20260509144355 | 64 | 102 | 1.0 | 4.0 | 0.00 | 0.00 | 0.00 | 66 | 1005.3 |
| 20260509143832 | 63 | 192 | 0.0 | 3.0 | 0.00 | 0.00 | 0.00 | 68 | 1005.3 |
| 20260509143336 | 63 | 286 | 1.0 | 4.0 | 0.00 | 0.00 | 0.00 | 68 | 1005.3 |
| 20260509142834 | 63 | 192 | 1.0 | 4.0 | 0.00 | 0.00 | 0.00 | 74 | 1005.3 |
| 20260509142336 | 62 | 219 | 0.0 | 3.0 | 0.00 | 0.01 | 0.00 | 72 | 1005.3 |
| 20260509141820 | 62 | 238 | 1.0 | 5.0 | 0.00 | 0.01 | 0.00 | 73 | 1005.3 |
| 20260509141328 | 61 | 44 | 0.0 | 5.0 | 0.00 | 0.01 | 0.00 | 75 | 1005.3 |
| 20260509140831 | 61 | 236 | 1.0 | 4.0 | 0.00 | 0.01 | 0.00 | 76 | 1005.4 |
| 20260509140337 | 61 | 250 | 0.0 | 3.0 | 0.00 | 0.01 | 0.00 | 78 | 1005.3 |
| 20260509135823 | 61 | 271 | 1.0 | 3.0 | 0.00 | 0.01 | 0.00 | 77 | 1005.5 |
| 20260509135330 | 60 | 244 | 0.0 | 4.0 | 0.00 | 0.01 | 0.00 | 77 | 1005.3 |
| 20260509134837 | 60 | 266 | 0.0 | 4.0 | 0.00 | 0.01 | 0.00 | 78 | 1005.3 |
| 20260509134322 | 59 | 319 | 0.0 | 2.0 | 0.00 | 0.01 | 0.00 | 78 | 1005.2 |
| 20260509133829 | 59 | 242 | 0.0 | 2.0 | 0.00 | 0.01 | 0.00 | 78 | 1005.2 |
| 20260509133330 | 59 | 246 | 0.0 | 1.0 | 0.00 | 0.01 | 0.00 | 79 | 1005.2 |
| 20260509132836 | 58 | 260 | 0.0 | 2.0 | 0.00 | 0.01 | 0.00 | 80 | 1005.2 |
| 20260509132343 | 58 | 74 | 0.0 | 3.0 | 0.00 | 0.01 | 0.00 | 81 | 1005.2 |
| 20260509131822 | 58 | 239 | 0.0 | 3.0 | 0.00 | 0.01 | 0.00 | 82 | 1005.2 |
| 20260509131326 | 57 | 322 | 0.0 | 2.0 | 0.00 | 0.01 | 0.00 | 83 | 1005.0 |
| 20260509130829 | 57 | 247 | 0.0 | 4.0 | 0.00 | 0.01 | 0.00 | 83 | 1005.2 |
| 20260509130332 | 57 | 194 | 1.0 | 4.0 | 0.00 | 0.01 | 0.00 | 84 | 1005.2 |
| 20260509125835 | 56 | 238 | 0.0 | 2.0 | 0.00 | 0.01 | 0.00 | 85 | 1005.0 |
| 20260509125339 | 56 | 246 | 0.0 | 1.0 | 0.00 | 0.01 | 0.00 | 86 | 1005.0 |
| 20260509124819 | 55 | 220 | 0.0 | 2.0 | 0.00 | 0.01 | 0.00 | 87 | 1004.9 |
| 20260509124322 | 55 | 259 | 0.0 | 2.0 | 0.00 | 0.01 | 0.00 | 87 | 1004.9 |
| 20260509123826 | 54 | 251 | 0.0 | 2.0 | 0.00 | 0.01 | 0.00 | 87 | 1004.9 |
| 20260509123330 | 54 | 165 | 0.0 | 3.0 | 0.00 | 0.01 | 0.00 | 88 | 1004.9 |
| 20260509122854 | 54 | 360 | 1.0 | 3.0 | 0.00 | 0.01 | 0.00 | 88 | 1004.9 |
| 20260509122317 | 53 | 360 | 0.0 | 3.0 | 0.00 | 0.01 | 0.00 | 88 | 1004.9 |
| 20260509121822 | 53 | 360 | 0.0 | 2.0 | 0.00 | 0.01 | 0.00 | 89 | 1004.8 |
| 20260509121324 | 53 | 360 | 0.0 | 2.0 | 0.00 | 0.01 | 0.00 | 89 | 1004.9 |
| 20260509120830 | 53 | 360 | 0.0 | 1.0 | 0.00 | 0.01 | 0.00 | 89 | 1004.8 |
| 20260509120317 | 52 | 360 | 0.0 | 2.0 | 0.00 | 0.01 | 0.00 | 89 | 1004.7 |
| 20260509115823 | 52 | 360 | 0.0 | 1.0 | 0.00 | 0.01 | 0.00 | 89 | 1004.7 |
| 20260509115329 | 52 | 360 | 0.0 | 1.0 | 0.00 | 0.01 | 0.00 | 89 | 1004.7 |
| 20260509114836 | 52 | 360 | 0.0 | 1.0 | 0.00 | 0.01 | 0.00 | 89 | 1004.6 |
| 20260509114319 | 52 | 360 | 0.0 | 1.0 | 0.00 | 0.01 | 0.00 | 88 | 1004.5 |
| 20260509113827 | 52 | 360 | 0.0 | 1.0 | 0.00 | 0.01 | 0.00 | 88 | 1004.5 |
| 20260509113333 | 52 | 360 | 0.0 | 0.0 | 0.00 | 0.01 | 0.00 | 88 | 1004.5 |
| 20260509112819 | 52 | 360 | 0.0 | 1.0 | 0.00 | 0.01 | 0.00 | 88 | 1004.5 |
| 20260509112326 | 52 | 360 | 0.0 | 1.0 | 0.00 | 0.01 | 0.00 | 88 | 1004.5 |
| 20260509111831 | 52 | 360 | 0.0 | 2.0 | 0.00 | 0.01 | 0.00 | 88 | 1004.5 |
| 20260509111335 | 52 | 360 | 0.0 | 3.0 | 0.00 | 0.01 | 0.00 | 88 | 1004.5 |
| 20260509110818 | 52 | 360 | 0.0 | 3.0 | 0.00 | 0.01 | 0.00 | 88 | 1004.5 |
| 20260509110322 | 52 | 360 | 0.0 | 1.0 | 0.00 | 0.01 | 0.00 | 88 | 1004.5 |
| 20260509105820 | 52 | 360 | 0.0 | 1.0 | 0.00 | 0.01 | 0.00 | 88 | 1004.4 |
| 20260509105322 | 52 | 360 | 0.0 | 1.0 | 0.00 | 0.01 | 0.00 | 88 | 1004.2 |
| 20260509104822 | 52 | 360 | 0.0 | 1.0 | 0.00 | 0.01 | 0.00 | 88 | 1004.1 |
| 20260509104344 | 52 | 360 | 0.0 | 2.0 | 0.00 | 0.01 | 0.00 | 88 | 1004.1 |
| 20260509103826 | 53 | 360 | 0.0 | 2.0 | 0.00 | 0.01 | 0.00 | 88 | 1004.1 |
| 20260509103330 | 53 | 360 | 0.0 | 3.0 | 0.00 | 0.01 | 0.00 | 88 | 1004.1 |
| 20260509102834 | 53 | 360 | 0.0 | 1.0 | 0.00 | 0.01 | 0.00 | 88 | 1004.0 |
| 20260509102357 | 53 | 360 | 0.0 | 1.0 | 0.00 | 0.01 | 0.00 | 88 | 1004.1 |
| 20260509101821 | 53 | 360 | 0.0 | 1.0 | 0.00 | 0.01 | 0.00 | 88 | 1004.2 |
| 20260509101328 | 53 | 360 | 0.0 | 1.0 | 0.00 | 0.01 | 0.00 | 88 | 1004.2 |
| 20260509100833 | 53 | 360 | 0.0 | 1.0 | 0.00 | 0.01 | 0.00 | 88 | 1004.2 |
| 20260509100340 | 53 | 360 | 0.0 | 2.0 | 0.00 | 0.01 | 0.00 | 88 | 1004.1 |
| 20260509095846 | 53 | 360 | 0.0 | 2.0 | 0.00 | 0.01 | 0.00 | 88 | 1004.1 |
| 20260509095326 | 53 | 360 | 0.0 | 2.0 | 0.00 | 0.01 | 0.00 | 88 | 1004.1 |
| 20260509094835 | 53 | 360 | 0.0 | 3.0 | 0.00 | 0.01 | 0.00 | 88 | 1004.0 |
| 20260509094343 | 53 | 360 | 1.0 | 3.0 | 0.00 | 0.01 | 0.00 | 88 | 1004.0 |
| 20260509093830 | 53 | 360 | 0.0 | 2.0 | 0.00 | 0.01 | 0.00 | 88 | 1004.0 |
| 20260509093339 | 53 | 360 | 0.0 | 2.0 | 0.00 | 0.01 | 0.00 | 88 | 1004.0 |
| 20260509092822 | 53 | 360 | 0.0 | 2.0 | 0.00 | 0.01 | 0.00 | 88 | 1004.0 |
| 20260509092329 | 53 | 360 | 0.0 | 2.0 | 0.00 | 0.01 | 0.00 | 88 | 1003.9 |
| 20260509091833 | 53 | 360 | 0.0 | 2.0 | 0.00 | 0.01 | 0.00 | 88 | 1004.0 |
| 20260509091334 | 53 | 360 | 0.0 | 2.0 | 0.00 | 0.01 | 0.00 | 88 | 1004.0 |
| 20260509090858 | 53 | 360 | 1.0 | 2.0 | 0.00 | 0.01 | 0.00 | 88 | 1004.1 |
| 20260509090341 | 53 | 360 | 0.0 | 2.0 | 0.00 | 0.01 | 0.00 | 88 | 1004.1 |
| 20260509085822 | 53 | 360 | 0.0 | 2.0 | 0.00 | 0.01 | 0.00 | 88 | 1004.2 |
| 20260509085321 | 53 | 360 | 0.0 | 2.0 | 0.00 | 0.01 | 0.00 | 88 | 1004.2 |
| 20260509084824 | 53 | 360 | 0.0 | 0.0 | 0.00 | 0.01 | 0.00 | 88 | 1004.1 |
| 20260509084329 | 54 | 360 | 0.0 | 1.0 | 0.00 | 0.01 | 0.00 | 88 | 1004.1 |
| 20260509083834 | 54 | 360 | 0.0 | 2.0 | 0.00 | 0.01 | 0.00 | 88 | 1004.3 |
| 20260509083335 | 54 | 360 | 0.0 | 2.0 | 0.00 | 0.01 | 0.00 | 88 | 1004.1 |
| 20260509082816 | 54 | 360 | 0.0 | 2.0 | 0.00 | 0.01 | 0.00 | 88 | 1004.1 |
| 20260509082318 | 54 | 360 | 0.0 | 1.0 | 0.00 | 0.01 | 0.00 | 88 | 1004.1 |
| 20260509081823 | 54 | 360 | 0.0 | 3.0 | 0.00 | 0.01 | 0.00 | 88 | 1004.2 |
| 20260509081328 | 54 | 360 | 0.0 | 3.0 | 0.00 | 0.01 | 0.00 | 88 | 1004.2 |
| 20260509080834 | 54 | 360 | 0.0 | 2.0 | 0.00 | 0.01 | 0.00 | 88 | 1004.3 |
| 20260509080336 | 54 | 360 | 0.0 | 2.0 | 0.00 | 0.01 | 0.00 | 88 | 1004.2 |
| 20260509075822 | 54 | 360 | 0.0 | 2.0 | 0.00 | 0.01 | 0.00 | 88 | 1004.3 |
| 20260509075330 | 54 | 360 | 0.0 | 1.0 | 0.00 | 0.01 | 0.00 | 88 | 1004.3 |
| 20260509074832 | 54 | 360 | 0.0 | 1.0 | 0.00 | 0.01 | 0.00 | 88 | 1004.3 |
| 20260509074318 | 54 | 360 | 0.0 | 3.0 | 0.00 | 0.01 | 0.00 | 88 | 1004.3 |
| 20260509073824 | 54 | 360 | 1.0 | 3.0 | 0.00 | 0.01 | 0.00 | 88 | 1004.5 |
| 20260509073326 | 54 | 17 | 0.0 | 1.0 | 0.00 | 0.01 | 0.00 | 88 | 1004.5 |
| 20260509072833 | 54 | 17 | 0.0 | 1.0 | 0.00 | 0.01 | 0.00 | 88 | 1004.4 |
| 20260509072319 | 54 | 360 | 0.0 | 3.0 | 0.00 | 0.06 | 0.00 | 88 | 1004.3 |
| 20260509071823 | 54 | 360 | 1.0 | 3.0 | 0.00 | 0.06 | 0.00 | 88 | 1004.3 |
| 20260509071327 | 54 | 360 | 0.0 | 3.0 | 0.00 | 0.06 | 0.00 | 88 | 1004.4 |
| 20260509070830 | 54 | 360 | 1.0 | 3.0 | 0.00 | 0.06 | 0.00 | 88 | 1004.3 |
| 20260509070334 | 54 | 360 | 0.0 | 3.0 | 0.00 | 0.06 | 0.00 | 88 | 1004.3 |
| 20260509065839 | 54 | 360 | 1.0 | 3.0 | 0.00 | 0.06 | 0.00 | 88 | 1004.4 |
| 20260509065321 | 54 | 360 | 0.0 | 2.0 | 0.00 | 0.06 | 0.00 | 88 | 1004.4 |
| 20260509064824 | 54 | 360 | 0.0 | 2.0 | 0.00 | 0.06 | 0.00 | 88 | 1004.4 |
| 20260509064347 | 54 | 360 | 0.0 | 3.0 | 0.00 | 0.06 | 0.00 | 88 | 1004.5 |
| 20260509063831 | 54 | 112 | 0.0 | 3.0 | 0.00 | 0.06 | 0.00 | 88 | 1004.6 |
| 20260509063334 | 54 | 94 | 0.0 | 2.0 | 0.00 | 0.06 | 0.00 | 87 | 1004.7 |
| 20260509062816 | 54 | 105 | 0.0 | 2.0 | 0.00 | 0.06 | 0.00 | 87 | 1004.8 |
| 20260509062336 | 54 | 88 | 0.0 | 2.0 | 0.00 | 0.11 | 0.00 | 87 | 1004.8 |
| 20260509061821 | 54 | 100 | 0.0 | 2.0 | 0.00 | 0.11 | 0.00 | 87 | 1004.9 |
| 20260509061327 | 54 | 63 | 0.0 | 2.0 | 0.00 | 0.11 | 0.00 | 87 | 1005.1 |
| 20260509060855 | 54 | 302 | 0.0 | 2.0 | 0.00 | 0.11 | 0.00 | 86 | 1005.2 |
| 20260509060320 | 55 | 104 | 0.0 | 2.0 | 0.00 | 0.11 | 0.00 | 87 | 1005.3 |
| 20260509055825 | 55 | 5 | 0.0 | 3.0 | 0.00 | 0.11 | 0.00 | 86 | 1005.3 |
| 20260509055330 | 55 | 28 | 0.0 | 3.0 | 0.00 | 0.11 | 0.00 | 86 | 1005.3 |
| 20260509054816 | 55 | 126 | 0.0 | 2.0 | 0.00 | 0.11 | 0.00 | 85 | 1005.3 |
| 20260509054323 | 55 | 129 | 0.0 | 2.0 | 0.00 | 0.11 | 0.00 | 85 | 1005.2 |
| 20260509053831 | 55 | 136 | 0.0 | 1.0 | 0.00 | 0.11 | 0.00 | 85 | 1005.3 |
| 20260509053337 | 55 | 120 | 0.0 | 2.0 | 0.00 | 0.11 | 0.00 | 85 | 1005.3 |
| 20260509052823 | 55 | 115 | 0.0 | 2.0 | 0.00 | 0.11 | 0.00 | 84 | 1005.3 |
| 20260509052328 | 55 | 111 | 0.0 | 4.0 | 0.00 | 0.12 | 0.11 | 84 | 1005.4 |
| 20260509051829 | 55 | 232 | 1.0 | 4.0 | 0.00 | 0.12 | 0.11 | 84 | 1005.5 |
| 20260509051332 | 55 | 115 | 0.0 | 3.0 | 0.00 | 0.12 | 0.11 | 84 | 1005.5 |
| 20260509050835 | 56 | 97 | 0.0 | 4.0 | 0.00 | 0.12 | 0.11 | 83 | 1005.6 |
| 20260509050319 | 56 | 299 | 1.0 | 4.0 | 0.00 | 0.12 | 0.11 | 83 | 1005.7 |
| 20260509045837 | 56 | 60 | 0.0 | 3.0 | 0.00 | 0.12 | 0.11 | 83 | 1005.6 |
| 20260509045321 | 56 | 20 | 0.0 | 2.0 | 0.00 | 0.12 | 0.11 | 83 | 1005.7 |
| 20260509044824 | 56 | 116 | 0.0 | 2.0 | 0.00 | 0.12 | 0.11 | 82 | 1005.8 |
| 20260509044329 | 56 | 123 | 0.0 | 2.0 | 0.00 | 0.12 | 0.11 | 82 | 1005.9 |
| 20260509043832 | 56 | 227 | 0.0 | 2.0 | 0.00 | 0.12 | 0.11 | 81 | 1005.9 |
| 20260509043336 | 56 | 129 | 0.0 | 2.0 | 0.00 | 0.12 | 0.11 | 81 | 1005.8 |
| 20260509042838 | 56 | 152 | 0.0 | 3.0 | 0.00 | 0.12 | 0.11 | 81 | 1005.9 |
| 20260509042321 | 56 | 266 | 0.0 | 3.0 | 0.00 | 0.13 | 0.11 | 81 | 1005.9 |
| 20260509041827 | 57 | 304 | 0.0 | 3.0 | 0.00 | 0.13 | 0.11 | 80 | 1005.8 |
| 20260509041332 | 57 | 266 | 0.0 | 3.0 | 0.00 | 0.13 | 0.11 | 80 | 1005.7 |
| 20260509040817 | 57 | 213 | 0.0 | 3.0 | 0.00 | 0.13 | 0.11 | 79 | 1005.6 |
| 20260509040318 | 57 | 225 | 1.0 | 3.0 | 0.00 | 0.13 | 0.11 | 79 | 1005.6 |
| 20260509035847 | 57 | 91 | 0.0 | 4.0 | 0.00 | 0.13 | 0.11 | 79 | 1005.7 |
| 20260509035353 | 57 | 184 | 1.0 | 4.0 | 0.00 | 0.13 | 0.11 | 78 | 1005.7 |
| 20260509034817 | 57 | 268 | 0.0 | 4.0 | 0.00 | 0.13 | 0.11 | 78 | 1005.8 |
| 20260509034323 | 57 | 168 | 1.0 | 4.0 | 0.00 | 0.13 | 0.11 | 78 | 1005.9 |
| 20260509033831 | 58 | 58 | 0.0 | 2.0 | 0.00 | 0.13 | 0.11 | 78 | 1005.7 |
| 20260509033337 | 58 | 230 | 0.0 | 3.0 | 0.00 | 0.13 | 0.11 | 77 | 1005.7 |
| 20260509032823 | 58 | 41 | 0.0 | 3.0 | 0.00 | 0.13 | 0.11 | 77 | 1005.7 |
| 20260509032330 | 58 | 186 | 1.0 | 3.0 | 0.00 | 0.13 | 0.11 | 77 | 1005.7 |
| 20260509031835 | 58 | 325 | 0.0 | 3.0 | 0.00 | 0.13 | 0.11 | 76 | 1005.6 |
| 20260509031318 | 58 | 96 | 1.0 | 3.0 | 0.00 | 0.13 | 0.11 | 76 | 1005.6 |
| 20260509030844 | 58 | 117 | 0.0 | 4.0 | 0.00 | 0.13 | 0.11 | 76 | 1005.7 |
| 20260509030325 | 59 | 344 | 1.0 | 4.0 | 0.00 | 0.13 | 0.11 | 75 | 1005.7 |
| 20260509025825 | 59 | 222 | 0.0 | 4.0 | 0.00 | 0.13 | 0.11 | 74 | 1005.7 |
| 20260509025328 | 59 | 24 | 1.0 | 6.0 | 0.00 | 0.13 | 0.11 | 74 | 1005.7 |
| 20260509024832 | 59 | 252 | 0.0 | 4.0 | 0.00 | 0.13 | 0.11 | 73 | 1005.6 |
| 20260509024335 | 59 | 113 | 0.0 | 3.0 | 0.00 | 0.13 | 0.11 | 73 | 1005.6 |
| 20260509023837 | 59 | 92 | 1.0 | 4.0 | 0.00 | 0.13 | 0.11 | 72 | 1005.6 |
| 20260509023342 | 60 | 106 | 1.0 | 4.0 | 0.00 | 0.13 | 0.11 | 72 | 1005.6 |
| 20260509022825 | 60 | 103 | 0.0 | 4.0 | 0.00 | 0.13 | 0.11 | 71 | 1005.6 |
| 20260509022326 | 60 | 132 | 0.0 | 4.0 | 0.00 | 0.13 | 0.11 | 71 | 1005.5 |
| 20260509021832 | 61 | 213 | 1.0 | 4.0 | 0.00 | 0.13 | 0.11 | 71 | 1005.5 |
| 20260509021339 | 61 | 83 | 0.0 | 2.0 | 0.00 | 0.13 | 0.11 | 69 | 1005.4 |
| 20260509020844 | 61 | 105 | 0.0 | 3.0 | 0.00 | 0.13 | 0.11 | 69 | 1005.4 |
| 20260509020330 | 61 | 248 | 0.0 | 3.0 | 0.00 | 0.13 | 0.11 | 69 | 1005.4 |
| 20260509015832 | 62 | 36 | 0.0 | 3.0 | 0.00 | 0.13 | 0.11 | 68 | 1005.2 |
| 20260509015337 | 62 | 46 | 0.0 | 3.0 | 0.00 | 0.13 | 0.11 | 68 | 1005.2 |
| 20260509014823 | 63 | 5 | 0.0 | 3.0 | 0.00 | 0.13 | 0.11 | 67 | 1005.2 |
| 20260509014326 | 63 | 129 | 0.0 | 4.0 | 0.00 | 0.13 | 0.11 | 66 | 1005.1 |
| 20260509013833 | 63 | 185 | 1.0 | 4.0 | 0.00 | 0.13 | 0.11 | 65 | 1005.1 |
| 20260509013317 | 64 | 118 | 0.0 | 3.0 | 0.00 | 0.13 | 0.11 | 64 | 1005.1 |
| 20260509012824 | 64 | 157 | 0.0 | 3.0 | 0.00 | 0.13 | 0.11 | 62 | 1005.0 |
| 20260509012353 | 64 | 61 | 1.0 | 3.0 | 0.00 | 0.15 | 0.11 | 60 | 1005.0 |
| 20260509011836 | 65 | 117 | 1.0 | 3.0 | 0.00 | 0.15 | 0.11 | 57 | 1004.9 |
| 20260509011319 | 65 | 240 | 1.0 | 5.0 | 0.00 | 0.15 | 0.11 | 52 | 1004.9 |
| 20260509010842 | 66 | 151 | 1.0 | 5.0 | 0.00 | 0.15 | 0.11 | 50 | 1004.8 |
| 20260509010324 | 66 | 115 | 0.0 | 2.0 | 0.00 | 0.15 | 0.11 | 49 | 1004.7 |
| 20260509005849 | 66 | 154 | 0.0 | 2.0 | 0.00 | 0.15 | 0.11 | 47 | 1004.7 |
| 20260509005328 | 67 | 169 | 0.0 | 2.0 | 0.00 | 0.15 | 0.11 | 46 | 1004.7 |
| 20260509004830 | 67 | 116 | 1.0 | 2.0 | 0.00 | 0.15 | 0.11 | 44 | 1004.8 |
| 20260509004333 | 67 | 101 | 0.0 | 2.0 | 0.00 | 0.15 | 0.11 | 44 | 1004.9 |
| 20260509003834 | 67 | 121 | 0.0 | 2.0 | 0.00 | 0.15 | 0.11 | 42 | 1005.0 |
| 20260509003337 | 67 | 302 | 0.0 | 2.0 | 0.00 | 0.15 | 0.11 | 44 | 1005.0 |
| 20260509002817 | 68 | 17 | 0.0 | 3.0 | 0.00 | 0.15 | 0.11 | 43 | 1005.1 |
| 20260509002322 | 68 | 97 | 1.0 | 3.0 | 0.00 | 0.15 | 0.11 | 42 | 1005.1 |
| 20260509001827 | 68 | 59 | 0.0 | 3.0 | 0.00 | 0.15 | 0.11 | 43 | 1005.2 |
| 20260509001334 | 68 | 36 | 0.0 | 3.0 | 0.00 | 0.15 | 0.11 | 43 | 1005.1 |
| 20260509000821 | 68 | 281 | 0.0 | 3.0 | 0.00 | 0.15 | 0.11 | 41 | 1005.2 |
| 20260509000327 | 69 | 227 | 0.0 | 2.0 | 0.00 | 0.15 | 0.11 | 44 | 1005.3 |
| 20260508235834 | 69 | 227 | 0.0 | 3.0 | 0.00 | 0.15 | 0.11 | 41 | 1005.3 |
| 20260508235320 | 69 | 333 | 0.0 | 3.0 | 0.00 | 0.15 | 0.11 | 42 | 1005.3 |
| 20260508234825 | 69 | 161 | 1.0 | 3.0 | 0.00 | 0.15 | 0.11 | 41 | 1005.2 |
| 20260508234332 | 69 | 104 | 1.0 | 5.0 | 0.00 | 0.15 | 0.11 | 40 | 1005.3 |
| 20260508233836 | 69 | 265 | 1.0 | 5.0 | 0.00 | 0.15 | 0.11 | 41 | 1005.4 |
| 20260508233321 | 69 | 169 | 1.0 | 3.0 | 0.00 | 0.15 | 0.11 | 41 | 1005.4 |
| 20260508232843 | 69 | 61 | 0.0 | 4.0 | 0.00 | 0.15 | 0.11 | 42 | 1005.4 |
| 20260508232327 | 69 | 273 | 1.0 | 4.0 | 0.00 | 0.15 | 0.11 | 40 | 1005.6 |
| 20260508231853 | 69 | 200 | 0.0 | 3.0 | 0.00 | 0.15 | 0.11 | 43 | 1005.5 |
| 20260508231356 | 69 | 36 | 0.0 | 3.0 | 0.00 | 0.15 | 0.11 | 42 | 1005.5 |
| 20260508230819 | 70 | 82 | 1.0 | 3.0 | 0.00 | 0.15 | 0.11 | 42 | 1005.4 |
| 20260508230344 | 70 | 277 | 1.0 | 3.0 | 0.00 | 0.15 | 0.11 | 40 | 1005.6 |
| 20260508225828 | 70 | 215 | 0.0 | 4.0 | 0.00 | 0.15 | 0.11 | 41 | 1005.5 |
| 20260508225331 | 70 | 196 | 0.0 | 4.0 | 0.00 | 0.15 | 0.11 | 42 | 1005.5 |
| 20260508224853 | 70 | 178 | 0.0 | 6.0 | 0.00 | 0.15 | 0.11 | 39 | 1005.5 |
| 20260508224329 | 70 | 238 | 1.0 | 6.0 | 0.00 | 0.15 | 0.11 | 42 | 1005.5 |
| 20260508223852 | 71 | 128 | 1.0 | 3.0 | 0.00 | 0.15 | 0.11 | 42 | 1005.6 |
| 20260508223334 | 70 | 331 | 1.0 | 4.0 | 0.00 | 0.15 | 0.11 | 41 | 1005.6 |
| 20260508222836 | 70 | 35 | 0.0 | 4.0 | 0.00 | 0.15 | 0.11 | 43 | 1005.6 |
| 20260508222319 | 71 | 105 | 1.0 | 3.0 | 0.00 | 0.15 | 0.11 | 41 | 1005.6 |
| 20260508221826 | 71 | 253 | 0.0 | 3.0 | 0.00 | 0.15 | 0.11 | 40 | 1005.6 |
| 20260508221333 | 71 | 255 | 0.0 | 2.0 | 0.00 | 0.15 | 0.11 | 41 | 1005.6 |
| 20260508220818 | 71 | 276 | 1.0 | 3.0 | 0.00 | 0.15 | 0.11 | 41 | 1005.6 |
| 20260508220325 | 71 | 294 | 1.0 | 4.0 | 0.00 | 0.15 | 0.11 | 40 | 1005.6 |
| 20260508215832 | 71 | 251 | 1.0 | 4.0 | 0.00 | 0.15 | 0.11 | 38 | 1005.6 |
| 20260508215317 | 71 | 57 | 0.0 | 4.0 | 0.00 | 0.15 | 0.11 | 40 | 1005.6 |
| 20260508214823 | 70 | 42 | 1.0 | 4.0 | 0.00 | 0.15 | 0.11 | 42 | 1005.6 |
| 20260508214331 | 70 | 224 | 1.0 | 4.0 | 0.00 | 0.15 | 0.11 | 37 | 1005.7 |
| 20260508213835 | 70 | 185 | 1.0 | 5.0 | 0.00 | 0.15 | 0.11 | 39 | 1005.7 |
| 20260508213341 | 70 | 265 | 1.0 | 2.0 | 0.00 | 0.15 | 0.11 | 38 | 1005.8 |
| 20260508212823 | 71 | 49 | 1.0 | 2.0 | 0.00 | 0.15 | 0.11 | 40 | 1005.9 |
| 20260508212351 | 70 | 265 | 0.0 | 3.0 | 0.00 | 0.15 | 0.11 | 42 | 1005.9 |
| 20260508211853 | 70 | 72 | 0.0 | 3.0 | 0.00 | 0.15 | 0.11 | 42 | 1006.0 |
| 20260508211317 | 70 | 304 | 1.0 | 5.0 | 0.00 | 0.15 | 0.11 | 40 | 1006.0 |
| 20260508210820 | 70 | 176 | 2.0 | 5.0 | 0.00 | 0.15 | 0.11 | 42 | 1006.0 |
| 20260508210347 | 70 | 55 | 0.0 | 3.0 | 0.00 | 0.15 | 0.11 | 44 | 1006.0 |
| 20260508205832 | 70 | 290 | 1.0 | 3.0 | 0.00 | 0.15 | 0.11 | 42 | 1006.1 |
| 20260508205335 | 70 | 317 | 1.0 | 4.0 | 0.00 | 0.15 | 0.11 | 40 | 1006.2 |
| 20260508204818 | 70 | 342 | 0.0 | 4.0 | 0.00 | 0.15 | 0.11 | 48 | 1006.2 |
| 20260508204320 | 69 | 244 | 0.0 | 4.0 | 0.00 | 0.15 | 0.11 | 43 | 1006.3 |
| 20260508203823 | 69 | 5 | 0.0 | 3.0 | 0.00 | 0.15 | 0.11 | 48 | 1006.3 |
| 20260508203325 | 69 | 257 | 1.0 | 4.0 | 0.00 | 0.15 | 0.11 | 42 | 1006.3 |
| 20260508202827 | 70 | 340 | 1.0 | 4.0 | 0.00 | 0.15 | 0.11 | 43 | 1006.4 |
| 20260508202351 | 70 | 198 | 0.0 | 2.0 | 0.00 | 0.15 | 0.11 | 46 | 1006.4 |
| 20260508201830 | 70 | 76 | 0.0 | 3.0 | 0.00 | 0.15 | 0.11 | 45 | 1006.5 |
| 20260508201336 | 70 | 144 | 1.0 | 3.0 | 0.00 | 0.15 | 0.11 | 46 | 1006.5 |
| 20260508200818 | 70 | 194 | 0.0 | 3.0 | 0.00 | 0.15 | 0.11 | 46 | 1006.8 |
| 20260508200324 | 70 | 93 | 1.0 | 3.0 | 0.00 | 0.15 | 0.11 | 44 | 1006.8 |
| 20260508195829 | 70 | 123 | 1.0 | 3.0 | 0.00 | 0.15 | 0.11 | 45 | 1007.0 |
| 20260508195336 | 70 | 217 | 1.0 | 3.0 | 0.00 | 0.15 | 0.11 | 43 | 1006.8 |
| 20260508194821 | 71 | 78 | 1.0 | 3.0 | 0.00 | 0.15 | 0.11 | 43 | 1007.0 |
| 20260508194326 | 71 | 113 | 1.0 | 4.0 | 0.00 | 0.15 | 0.11 | 48 | 1007.0 |
| 20260508193830 | 70 | 57 | 1.0 | 4.0 | 0.00 | 0.15 | 0.11 | 45 | 1007.1 |
| 20260508193337 | 71 | 294 | 1.0 | 3.0 | 0.00 | 0.15 | 0.11 | 47 | 1007.1 |
| 20260508192824 | 71 | 176 | 1.0 | 3.0 | 0.00 | 0.15 | 0.11 | 45 | 1007.3 |
| 20260508192330 | 70 | 267 | 0.0 | 4.0 | 0.00 | 0.15 | 0.11 | 50 | 1007.2 |
| 20260508191831 | 70 | 273 | 1.0 | 4.0 | 0.00 | 0.15 | 0.11 | 50 | 1007.3 |
| 20260508191333 | 70 | 98 | 0.0 | 3.0 | 0.00 | 0.15 | 0.11 | 51 | 1007.2 |
| 20260508190857 | 70 | 290 | 0.0 | 4.0 | 0.00 | 0.15 | 0.11 | 53 | 1007.4 |
| 20260508190319 | 70 | 213 | 1.0 | 4.0 | 0.00 | 0.15 | 0.11 | 52 | 1007.4 |
| 20260508185822 | 70 | 206 | 1.0 | 3.0 | 0.00 | 0.15 | 0.11 | 50 | 1007.5 |
| 20260508185344 | 70 | 355 | 1.0 | 3.0 | 0.00 | 0.15 | 0.11 | 50 | 1007.5 |
| 20260508184828 | 70 | 228 | 1.0 | 3.0 | 0.00 | 0.15 | 0.11 | 51 | 1007.6 |
| 20260508184329 | 69 | 355 | 0.0 | 3.0 | 0.00 | 0.15 | 0.11 | 50 | 1007.6 |
| 20260508183832 | 70 | 130 | 1.0 | 5.0 | 0.00 | 0.15 | 0.11 | 52 | 1007.8 |
| 20260508183335 | 70 | 142 | 1.0 | 5.0 | 0.00 | 0.15 | 0.11 | 53 | 1007.8 |
| 20260508182817 | 70 | 121 | 1.0 | 5.0 | 0.00 | 0.15 | 0.11 | 53 | 1007.9 |
| 20260508182321 | 70 | 242 | 1.0 | 5.0 | 0.00 | 0.15 | 0.11 | 53 | 1008.0 |
| 20260508181822 | 70 | 219 | 0.0 | 3.0 | 0.00 | 0.15 | 0.11 | 54 | 1007.9 |
| 20260508181325 | 70 | 254 | 0.0 | 3.0 | 0.00 | 0.15 | 0.11 | 46 | 1008.0 |
| 20260508180852 | 70 | 227 | 0.0 | 4.0 | 0.00 | 0.15 | 0.11 | 53 | 1008.1 |
| 20260508180337 | 69 | 268 | 1.0 | 4.0 | 0.00 | 0.15 | 0.11 | 47 | 1008.2 |
| 20260508175819 | 69 | 312 | 1.0 | 2.0 | 0.00 | 0.15 | 0.11 | 52 | 1008.2 |
| 20260508175346 | 69 | 234 | 0.0 | 2.0 | 0.00 | 0.15 | 0.11 | 50 | 1008.2 |
| 20260508174829 | 68 | 15 | 0.0 | 2.0 | 0.00 | 0.15 | 0.11 | 49 | 1008.2 |
| 20260508174332 | 68 | 360 | 1.0 | 2.0 | 0.00 | 0.15 | 0.11 | 54 | 1008.3 |
| 20260508173832 | 67 | 360 | 0.0 | 1.0 | 0.00 | 0.15 | 0.11 | 55 | 1008.2 |
| 20260508173318 | 67 | 360 | 0.0 | 2.0 | 0.00 | 0.15 | 0.11 | 48 | 1008.3 |
| 20260508172825 | 67 | 360 | 0.0 | 2.0 | 0.00 | 0.15 | 0.11 | 53 | 1008.3 |
| 20260508172331 | 67 | 360 | 0.0 | 3.0 | 0.00 | 0.17 | 0.11 | 57 | 1008.4 |
| 20260508171835 | 67 | 119 | 1.0 | 3.0 | 0.00 | 0.17 | 0.11 | 60 | 1008.5 |